Location: Maiden
(35.5760°N, 81.2120°W)
Time: 03:09:55
(UTC-05:00)

Cosmos 1939 Rocket - Pass Details

Date: 14 June 2018
Orbit: 533 x 585 km, 97.5° (Epoch: 15 November)

Event Time Altitude Azimuth Distance (km) Brightness Sun altitude
Rises 21:28:36 0° 178° (S) 2,794 6.0 -8.8°
Reaches altitude 10° 21:30:48 10° 183° (S) 1,897 5.2 -9.1°
Maximum altitude 21:34:49 52° 260° (W) 724 3.7 -9.8°
Drops below altitude 10° 21:38:51 10° 338° (NNW) 1,894 6.6 -10.4°
Sets 21:41:02 0° 343° (NNW) 2,789 7.4 -10.8°
